Weather History for Fayetteville, AR

Change the Weather History Date:

Thursday, January 5, 2012

  Actual Average Record
Temperature  
Mean Temperature 44 °F 35 °F  
Max Temperature 63 °F 46 °F 71 °F (1956)
Min Temperature 25 °F 25 °F -3 °F (1972)
Degree Days  
Heating Degree Days 21 30  
Month to date heating degree days 150  
Since 1 July heating degree days 1833  
Moisture  
Dew Point 27 °F    
Average Humidity 57    
Maximum Humidity 92    
Minimum Humidity 24    
Precipitation  
Precipitation 0.00 in 0.10 in 0.84 in (2005)
Month to date precipitation 0.47  
Year to date precipitation 0.47  
Sea Level Pressure  
Sea Level Pressure 30.17 in    
Wind  
Wind Speed 5 mph (SW)    
Max Wind Speed 15 mph    
Max Gust Speed 23 mph    
Visibility 10 miles    
Events      
T = Trace of Precipitation, MM = Missing Value Source: NWS Daily Summary

Daily Weather History Graph

Daily Weather History Graph

Search for Another Location

Airport:

Trip Planner

Search our weather history database for the weather conditions in past years. The results will help you decide how hot, cold, wet, or windy it might be!

Date:

Astronomy

Jan. 05, 2012 Rise Set
Actual Time 7:27 AM CST 5:16 PM CST
Civil Twilight 6:59 AM CST 5:44 PM CST
Nautical Twilight 6:27 AM CST 6:16 PM CST
Astronomical Twilight 5:56 AM CST 6:47 PM CST
Moon 2:20 PM CST (1/5) 4:13 AM CST (1/5)
Length of Visible Light 10h 45m
Length of Day
9h 48m
Waxing Gibbous, 88% of the Moon is Illuminated
Jan 5
Waxing Gibbous
Jan 9
Full
Jan 16
Last Quarter
Jan 23
New
Jan 30
First Quarter

Hourly Weather History & Observations

Time (CST) Temp. Windchill Dew Point Humidity Pressure Visibility Wind Dir Wind Speed Gust Speed Precip Events Conditions
12:53 AM 26.1 °F - 23.0 °F 88% 30.30 in 10.0 mi Calm Calm - N/A   Clear
1:53 AM 26.1 °F - 23.0 °F 88% 30.29 in 10.0 mi Calm Calm - N/A   Clear
2:53 AM 27.0 °F 21.6 °F 23.0 °F 85% 30.27 in 10.0 mi SW 4.6 mph - N/A   Clear
3:53 AM 27.0 °F 19.5 °F 23.0 °F 85% 30.27 in 10.0 mi South 6.9 mph - N/A   Clear
4:53 AM 27.0 °F 19.5 °F 23.0 °F 85% 30.26 in 10.0 mi SSW 6.9 mph - N/A   Clear
5:53 AM 26.1 °F 21.9 °F 23.0 °F 88% 30.25 in 10.0 mi South 3.5 mph - N/A   Clear
6:53 AM 26.1 °F - 23.0 °F 88% 30.26 in 10.0 mi Calm Calm - N/A   Clear
7:53 AM 25.0 °F - 23.0 °F 92% 30.27 in 10.0 mi Calm Calm - N/A   Clear
8:53 AM 33.1 °F - 28.9 °F 85% 30.26 in 10.0 mi Calm Calm - N/A   Clear
9:53 AM 46.9 °F - 32.0 °F 56% 30.25 in 10.0 mi South 4.6 mph - N/A   Clear
10:53 AM 59.0 °F - 26.6 °F 29% 30.22 in 10.0 mi SW 11.5 mph 20.7 mph N/A   Clear
11:53 AM 61.0 °F - 27.0 °F 27% 30.19 in 10.0 mi WSW 15.0 mph 20.7 mph N/A   Clear
12:53 PM 62.1 °F - 27.0 °F 26% 30.16 in 10.0 mi SW 12.7 mph 23.0 mph N/A   Clear
1:53 PM 63.0 °F - 27.0 °F 26% 30.12 in 10.0 mi SW 10.4 mph 19.6 mph N/A   Clear
2:53 PM 63.0 °F - 26.1 °F 25% 30.10 in 10.0 mi SW 12.7 mph - N/A   Clear
3:53 PM 62.1 °F - 25.0 °F 24% 30.09 in 10.0 mi SW 12.7 mph - N/A   Clear
4:53 PM 57.9 °F - 27.0 °F 31% 30.08 in 10.0 mi SW 11.5 mph - N/A   Clear
5:53 PM 53.1 °F - 28.0 °F 38% 30.08 in 10.0 mi SW 4.6 mph - N/A   Clear
6:53 PM 44.1 °F - 28.0 °F 53% 30.08 in 10.0 mi Calm Calm - N/A   Clear
7:53 PM 51.1 °F - 30.0 °F 44% 30.08 in 10.0 mi SW 6.9 mph - N/A   Clear
8:53 PM 48.9 °F - 30.0 °F 48% 30.06 in 10.0 mi SSW 8.1 mph - N/A   Clear
9:53 PM 48.9 °F - 30.0 °F 48% 30.05 in 10.0 mi SSW 4.6 mph - N/A   Clear
10:53 PM 48.9 °F - 30.0 °F 48% 30.03 in 10.0 mi SW 6.9 mph - N/A   Clear
11:53 PM 46.9 °F - 30.9 °F 54% 30.00 in 10.0 mi SSW 9.2 mph - N/A   Clear